Weather in Varakinskiy

Russia / Kostroma Oblast     58°22′08″N   45°20′36″E
temp.,
°C
wind,
m/s
gust,
m/s
humid.,
%
clouds,
%
prec.,
mm/h
press.,
hPa
HPBL,
m
7 may, fri
fri700:00+10s414925 0.2 1007641
03:00+9s41291100 0.2 1007545
06:00+10s31093100 0.5 1007585
09:00+10sw2593100 0.9 1008345
12:00+7w3792100 0.6 1010510
15:00+6w3693100 2.1 1011827
18:00+8ssw2587100 1.0 1011312
21:00+5sw22920 1.1 101342
8 may, sat
sat800:00+3sw22920 0.0 101524
03:00+3ssw23925 0.0 101645
06:00+6sse2485100 0.0 1017116
09:00+11sse3562100 0.0 1017629
12:00+14sse463884 0.0 10151920
15:00+14sse5741100 0.0 10131905
18:00+13se5956100 0.0 1011855
21:00+10se41176100 0.0 1010518
9 may, sun
sun900:00+10sse31185100 0.1 1009492
03:00+9se41295100 1.9 1008588
06:00+9sse41195100 1.6 1007578
09:00+10sse41197100 6.0 1007590
12:00+10sse41196100 0.6 1009579
15:00+13ssw3893100 0.8 1010636
18:00+10w1499100 3.3 1011153
21:00+9sw2499100 7.6 1013154
10 may, mon
mon1000:00+9w3799100 1.7 1016410
03:00+7nnw3997100 3.7 1019441
06:00+6nnw3896100 0.3 1023591
09:00+7nnw378878 0.3 1026599
12:00+13n34505 0.0 10261371
15:00+15n34392 0.0 10271603
18:00+13n24535 0.0 1028175
21:00+8nnw126954 0.0 103010
11 may, tue
tue1100:00+6n117452 0.0 103110
03:00+5nw00778 0.0 103110
06:00+9ssw116794 0.0 103274
09:00+14w115078 0.0 1032544
12:00+18wsw114379 0.0 10321119
15:00+19wnw1246100 0.0 10301223
18:00+18w1163100 0.0 103020
21:00+12w11795 0.0 103010